Шилега

Россия / Архангельская область     64°01′50″N   44°06′27″E
темп.,
°C
ветер,
м/с
пор.,
м/с
влажн.,
%
обл.,
%
осадки,
мм/ч
давл.,
гПа
погр.,
м
3 августа, вт
вт300:00+15ю2288100 0.0 100628
03:00+13юв259765 0.0 1005102
06:00+16вюв3108375 0.0 1003316
09:00+22юв51161100 0.1 1000861
12:00+18юв41291100 6.1 998784
15:00+22ю6138491 9.1 9981396
18:00+19ююз61268100 0.3 9991267
21:00+16ю410765 0.3 1001487
4 августа, ср
ср400:00+15ю413800 0.0 1002453
03:00+14ююз41380100 0.0 1002488
06:00+15ю411770 0.0 1003639
09:00+18юз695841 0.0 10041434
12:00+17ююз7105664 0.1 10061576
15:00+18ююз6115534 0.1 10071728
18:00+19юз6124017 0.0 10072289
21:00+13зсз3764100 0.0 1009395
5 августа, чт
чт500:00+9з4107864 0.0 1011820
03:00+10юз4969100 0.0 1012974
06:00+11юз4978100 0.0 1013860
09:00+12зюз4873100 0.0 1015946
12:00+14зсз4667100 0.2 10161119
15:00+14зсз3561100 0.3 10171109
18:00+14ссз34619 0.1 10181064
21:00+9всв12955 0.1 101915
6 августа, пт
пт600:00+7всв119553 0.0 102010
03:00+6юв019547 0.0 102210
06:00+10св018093 0.0 1022127
09:00+13ссв1259100 0.0 1023500
12:00+17всв244060 0.0 10231993
15:00+17св3340100 0.0 10222193
18:00+14св2562100 0.0 1023182
21:00+12св1168100 0.0 102318
7 августа, сб
сб700:00+11ссв1170100 0.0 102413
03:00+11ссв227286 0.0 102460
06:00+11ссв23725 0.0 1025136
09:00+16ссв235359 0.0 1025903
12:00+19ссв344218 0.0 10241863
15:00+20ссв453896 0.0 10242355
18:00+18ссв25497 0.0 1024653
21:00+12ссв22700 0.0 102511